TimeAKDT,TemperatureF,Dew PointF,Humidity,Sea Level PressureIn,VisibilityMPH,Wind Direction,Wind SpeedMPH,Gust SpeedMPH,PrecipitationIn,Events,Conditions,WindDirDegrees,DateUTC
2:53 AM,-0.9,-4.0,87,30.37,10.0,WSW,15.0,-,N/A,,Overcast,250,2013-04-25 10:53:00
4:53 AM,1.9,-0.9,88,30.35,7.0,WSW,15.0,-,0.00,Snow,Light Snow,250,2013-04-25 12:53:00
5:50 AM,3.2,-0.4,85,30.34,2.5,WSW,16.1,-,0.00,Snow,Light Snow,250,2013-04-25 13:50:00
5:53 AM,3.0,-0.0,87,30.34,3.0,WSW,15.0,-,0.00,Snow,Light Snow,250,2013-04-25 13:53:00
6:20 AM,3.2,1.4,92,30.33,2.0,WSW,16.1,-,0.00,Snow,Light Snow,250,2013-04-25 14:20:00
6:30 AM,3.2,1.4,92,30.33,5.0,WSW,16.1,-,0.00,Snow,Light Snow,250,2013-04-25 14:30:00
6:53 AM,3.0,1.0,91,30.33,8.0,WSW,16.1,-,0.00,,Overcast,250,2013-04-25 14:53:00
7:53 AM,3.9,1.9,91,30.33,8.0,WSW,16.1,-,0.00,,Overcast,250,2013-04-25 15:53:00
8:53 AM,5.0,3.0,92,30.33,4.0,West,13.8,-,0.00,Snow,Light Snow,260,2013-04-25 16:53:00
9:18 AM,6.8,3.2,85,30.32,2.5,West,15.0,-,0.00,Snow,Light Snow,260,2013-04-25 17:18:00
9:53 AM,6.1,3.9,91,30.33,2.5,West,12.7,-,0.00,Snow,Light Snow,260,2013-04-25 17:53:00
12:14 PM,6.8,3.2,85,30.32,3.0,WSW,16.1,-,0.00,Snow,Light Snow,250,2013-04-25 20:14:00
12:53 PM,7.0,3.0,84,30.32,6.0,WSW,15.0,-,0.00,Snow,Light Snow,250,2013-04-25 20:53:00
1:41 PM,8.6,5.0,85,30.30,0.8,West,16.1,-,0.00,Snow,Light Snow,260,2013-04-25 21:41:00
1:53 PM,8.1,5.0,87,30.31,5.0,West,16.1,-,0.00,Snow,Light Snow,260,2013-04-25 21:53:00
2:09 PM,8.6,5.0,85,30.30,7.0,West,16.1,-,0.00,Snow,Light Snow,260,2013-04-25 22:09:00
2:53 PM,9.0,5.0,84,30.28,1.2,West,15.0,-,0.00,Snow,Light Snow,260,2013-04-25 22:53:00
2:57 PM,8.6,5.0,85,30.28,4.0,WSW,15.0,-,0.00,Snow,Light Snow,250,2013-04-25 22:57:00
3:20 PM,8.6,5.0,85,30.27,10.0,West,13.8,-,0.00,,Overcast,260,2013-04-25 23:20:00
3:29 PM,8.6,5.0,85,30.27,10.0,West,15.0,-,0.00,Snow,Light Snow,260,2013-04-25 23:29:00
3:53 PM,9.0,6.1,88,30.27,10.0,West,15.0,-,0.00,,Overcast,270,2013-04-25 23:53:00
4:42 PM,8.6,6.8,92,30.26,3.0,West,16.1,-,0.00,Snow,Light Snow,270,2013-04-26 00:42:00
4:53 PM,9.0,6.1,88,30.26,5.0,West,16.1,-,0.00,Snow,Light Snow,260,2013-04-26 00:53:00
5:05 PM,10.4,6.8,85,30.25,2.5,West,15.0,-,0.00,Snow,Light Snow,270,2013-04-26 01:05:00
5:22 PM,8.6,5.0,85,30.24,4.0,West,13.8,-,0.00,Snow,Light Snow,260,2013-04-26 01:22:00
5:53 PM,9.0,5.0,84,30.24,6.0,WSW,13.8,-,0.00,Snow,Blowing Snow,250,2013-04-26 01:53:00
6:18 PM,8.6,5.0,85,30.22,4.0,WSW,12.7,-,0.00,Snow,Light Snow,250,2013-04-26 02:18:00
6:53 PM,9.0,5.0,84,30.22,4.0,West,12.7,-,0.00,Snow,Light Snow,260,2013-04-26 02:53:00
7:06 PM,8.6,5.0,85,30.20,5.0,WSW,12.7,-,0.00,Snow,Light Snow,250,2013-04-26 03:06:00
7:53 PM,9.0,6.1,88,30.18,5.0,WSW,13.8,-,0.00,Snow,Light Snow,250,2013-04-26 03:53:00
8:53 PM,8.1,5.0,87,30.16,10.0,WSW,13.8,-,0.00,,Overcast,250,2013-04-26 04:53:00
9:53 PM,8.1,5.0,87,30.13,9.0,WSW,12.7,-,0.00,Snow,Light Snow,250,2013-04-26 05:53:00
10:44 PM,8.6,5.0,85,30.09,10.0,WSW,10.4,-,0.00,,Overcast,250,2013-04-26 06:44:00
10:53 PM,8.1,5.0,87,30.09,10.0,WSW,10.4,-,0.00,,Overcast,240,2013-04-26 06:53:00
11:27 PM,8.6,6.8,92,30.06,10.0,SW,8.1,-,0.00,,Overcast,230,2013-04-26 07:27:00
11:53 PM,8.1,5.0,87,30.05,10.0,SW,8.1,-,0.00,,Overcast,220,2013-04-26 07:53:00